Regional Weather Roundup
Issued by NWS Nashville, TN

Home | Current Version | Previous Version | Text Only | Print | Product List | Glossary On
Versions: 1 2 3 4 5 6 7 8 9 10 11 12 13 14 15 16 17 18 19 20 21 22 23 24 25 26 27 28
000
ASUS44 KOHX 280510
RWROHX
MIDDLE TENNESSEE HOURLY WEATHER ROUNDUP
NATIONAL WEATHER SERVICE NASHVILLE TN
1200 AM CDT WED SEP 28 2016

NOTE: "FAIR" INDICATES FEW OR NO CLOUDS BELOW 12,000 FEET WITH
NO SIGNIFICANT WEATHER AND/OR OBSTRUCTIONS TO VISIBILITY.

* THESE REPORTS ARE NOT UNDER NWS QUALITY CONTROL AND MAY NOT
  REPORT WEATHER SUCH AS PRECIPITATION AND FOG.


TNZ005>011-023>034-057-059-062>066-078-080-280600
...NORTHERN MIDDLE TENNESSEE...

CITY           SKY/WX    TMP DP  RH WIND       PRES   REMARKS
CLARKSVILLE    CLEAR     58  49  72 S3        29.93F
CROSSVILLE     CLEAR     49  44  83 CALM      29.99S
GALLATIN       CLEAR     54  50  87 CALM      29.98S
DICKSON        CLEAR     56  45  66 CALM      29.95S
LEBANON        CLEAR     52  48  86 CALM      29.94S
LIVINGSTON     CLEAR     57  45  64 CALM      29.97
NASHVILLE      CLEAR     55  49  80 S5        29.95F
WEST NASHVILLE CLEAR     54  54 100 CALM      29.95S
PORTLAND       CLEAR     54  50  87 S5        29.94F
SMYRNA         CLEAR     53  50  89 CALM      29.96F
SPARTA         CLEAR     46  46 100 CALM      29.96F
$$
TNZ056-058-060-061-075>077-079-093>097-280600
...SOUTHERN MIDDLE TENNESSEE...

CITY           SKY/WX    TMP DP  RH WIND       PRES   REMARKS
COLUMBIA       CLEAR    N/A N/A N/A CALM      29.94F
FAYETTEVILLE   CLOUDY    57  48  72 CALM      29.96S
MCMINNVILLE    CLEAR     48  48 100 E63G94    29.96F
MURFREESBORO   CLEAR     55  47  74 CALM      29.95F
SHELBYVILLE    CLEAR     52  48  87 E5        29.97F
TULLAHOMA      CLEAR     48  43  81 CALM      29.97F
WINCHESTER     CLEAR     48  48 100 CALM      29.97S
$$


...KEY TO REMARKS...
VSB - VISIBILITY IN MILES
WCI - WIND CHILL INDEX
HX  - HEAT INDEX





USA.gov is the U.S. government's official web portal to all federal, state and local government web resources and services.